ONEWEB-0237 (48770 NORAD) Tracking and Keplerian Element Data

This shows tracking and keplerian element data for the satellite.

Feedback or suggestion? Click here.




ElementValue
Catalog48770
NameONEWEB-0237
Epoch Orbit1070
Epoch Day211.25001157
Epoch Year2021
RAAN255.7723
Inclination87.5615
Eccentricity0.0013129
Argument of Perigee52.5567
Mean Anonmoly171.421
Mean Motion14.42935414
Decay Rate-0.01459201
L11 48770U 21045D 21211.25001157 -.01459201 00000-0 -46863+0 0 9996
L22 48770 87.5615 255.7723 0013129 52.5567 171.4210 14.42935414 10708

Live tracking and technical data element details for ONEWEB-0237 (NORAD 48770). ONEWEB-0237 can be tracked NOW for your location showing map with azimuth and elevation plus other details from your city location.

Track the satellite on the map from your city or location and see movement details for azimuth, elevation, latitude, longitude, range, height, and movement on the map or in text.







IsCatalogInMostPopularTable: catalog: 48770, numindb: 13
Update: records affected: 1



GetName: 48770 ONEWEB-0237

Hit Count: updated at: Sat, 31 Jul 2021 15:04:06 GMT